SCP
0 0 0 0 0 0 0 0 0 0 0 0 0 -0 0 0 0 0 0 0 0 0 0 0 0 0 0 0 0 0 0 0 0 0 0 0 0 0 0 0 0 0 0 -0 -0 0 0
0 0 0 0 0 0 0 0 0 0 0 0 0 0 0 0 0 0 0 0 0 0 0 0 0 0 0 0 0 0 0 0 0 0 0 0 0 0 0 0 0 0 -0 -0 -0 0 0
0 0 0 0 0 0 0 0 0 0 0 0 0 -0 0 0 0 0 0 0 0 0 0 0 0 0 0 0 0 0 0 0 0 0 0 0 0 0 0 0 0 0 -0 -0 -0 -0 -0
0 0 0 0 0 0 0 0 0 0 0 0 0 0 0 0 0 0 0 0 0 0 0 0 0 0 0 0 0 0 0 0 0 0 0 0 0 0 0 0 0 0 -0 -0 -0 -0 0
0 0 0 0 0 0 0 0 0 0 0 0 0 0 0 0 0 0 0 0 0 0 0 0 0 0 0 0 0 0 0 0 0 0 0 0 0 0 0 0 0 0 0 -0 -0 -0 0
0 0 0 0 0 0 0 0 0 0 0 0 0 0 0 0 0 0 0 0 0 0 0 0 0 0 0 0 0 0 0 0 0 0 0 0 0 0 0 0 0 0 0 0 0 -0 -0
0 0 0 0 0 0 0 0 0 0 0 0 0 0 0 -0 0 0 0 0 0 0 0 0 0 0 0 0 0 0 0 0 0 0 0 0 0 0 0 0 0 0 0 0 -0 0 0
0 0 0 0 0 0 0 0 0 0 0 0 0 0 0 0 0 0 0 -0 0 0 -0 0 0 0 0 0 0 0 0 0 0 0 0 0 0 0 0 0 0 0 0 0 0 0 0
0 0 0 0 0 0 0 0 0 0 0 0 0 0 0 0 0 0 0 0 0 0 -0 -0 0 0 0 0 0 0 0 0 0 0 0 0 0 0 0 0 0 0 0 0 0 0 0
0 0 0 0 0 0 0 0 0 0 0 0 0 0 0 0 0 0 0 0 0 0 -0 -0 0 0 0 0 0 0 0 0 0 0 0 0 0 0 0 0 0 0 0 0 0 0 0
0 0 0 0 0 0 0 0 0 0 0 0 0 0 0 0 0 0 0 0 0 0 0 0 0 0 0 0 0 0 0 0 0 0 0 0 0 0 0 0 0 0 0 0 0 0 0
0 0 0 0 0 0 0 0 0 0 0 0 0 0 0 0 0 0 0 0 0 0 0 0 0 0 0 0 0 0 0 0 0 0 0 0 0 0 0 0 0 0 0 0 0 0 0
0 0 0 0 0 0 0 0 0 0 0 0 0 0 0 0 0 0 0 0 0 0 0 0 0 0 0 0 0 0 0 0 0 0 0 0 0 0 0 0 0 0 0 0 0 0 0
0 0 0 0 0 0 0 0 0 0 0 0 0 0 0 0 0 0 0 0 0 0 0 0 0 0 0 0 0 0 0 0 0 0 0 0 0 0 0 0 0 0 0 0 0 0 0
0 0 0 0 0 0 0 0 0 0 0 0 0 0 0 0 0 0 0 0 0 0 0 0 0 0 0 0 0 0 0 0 0 0 0 0 0 0 0 0 0 0 0 0 0 0 0
0 0 0 0 0 0 0 0 0 0 0 0 0 0 0 0 0 0 0 0 0 0 0 0 0 0 0 0 0 0 0 0 0 0 0 0 0 0 0 0 0 0 0 0 0 0 0
0 0 0 0 0 0 0 0 0 0 0 0 0 0 0 0 0 0 0 0 0 0 0 0 0 0 0 0 0 0 0 0 0 0 0 0 0 0 0 0 0 0 0 0 0 0 0
0 0 0 0 0 0 0 0 0 0 0 0 0 0 0 0 0 0 0 0 0 0 0 0 0 0 0 0 0 0 0 0 0 0 0 0 0 0 0 0 0 0 0 0 0 0 0
0 0 0 0 0 0 0 0 0 0 0 0 0 0 0 0 0 0 0 0 0 0 0 0 0 0 -0 0 0 0 0 0 0 0 0 0 0 0 0 0 0 0 0 0 0 0 0
0 0 0 0 0 0 0 0 0 0 0 0 0 0 0 0 0 0 0 0 0 0 0 0 0 0 0 0 0 0 0 0 0 0 0 0 0 0 0 0 0 0 0 0 0 0 0
0 0 0 0 0 0 0 0 0 0 0 0 0 0 0 0 0 0 0 0 0 0 0 0 0 0 0 0 0 0 0 0 0 0 0 0 0 0 0 0 0 0 0 0 0 0 0
0 0 0 0 0 0 -0 -0 0 0 0 0 0 0 0 0 0 0 0 0 0 0 0 0 0 0 0 0 0 0 0 0 0 0 0 0 0 0 0 0 0 0 0 0 0 0 0
0 0 0 0 0 -0 -0 -0 0 0 0 0 0 0 0 0 0 0 0 0 0 0 0 0 -0 0 0 0 0 0 0 0 0 0 0 0 0 -0 -0 -0 -0 0 -0 0 0 0 0
0 0 0 -0 -0 -0 -0 -0 0 0 0 0 0 0 0 0 0 0 0 0 0 0 0 0 -0 -0 0 0 0 0 0 0 0 0 0 0 0 -0 -0 -0 -0 -0 0 0 0 0 0
0 0 0 0 0 0 0 0 0 0 0 0 0 0 0 0 0 0 0 0 0 0 0 0 0 0 0 0 0 0 0 0 0 0 0 0 0 0 -0 -0 -0 -0 -0 -0 0 0 0
0 0 0 0 0 0 0 0 0 0 0 0 0 0 0 0 0 0 0 0 0 0 0 0 0 0 0 0 0 0 0 0 0 0 0 0 0 0 0 0 -0 -0 -0 0 0 0 0
0 0 0 0 0 0 0 0 0 0 0 0 0 0 0 0 0 0 0 0 0 0 0 0 0 0 0 0 0 0 0 0 0 0 0 0 0 0 0 0 0 -0 -0 -0 -0 0 0
0 0 0 0 0 0 0 0 0 0 0 0 0 0 0 0 0 0 0 0 0 0 0 0 0 0 0 0 0 0 0 0 0 0 0 0 0 0 0 0 -0 -0 0 -0 -0 0 0
0 0 0 0 0 0 0 0 0 0 0 0 0 0 0 0 0 0 0 0 0 0 0 0 0 0 0 0 0 0 0 0 0 0 0 0 0 0 0 0 0 -0 0 -0 -0 -0 0
Wind_Speed_500mb
24 27 27 27 27 30 35 39 34 29 39 43 46 53 52 52 53 57 56 48 47 45 44 37 40 43 40 16 40 26 24 25 17 18 21 25 24 13 7 8 4 10 8 28 41 20 15
26 28 28 28 28 32 33 37 39 42 35 36 40 46 45 45 52 57 59 55 54 46 46 37 38 41 32 16 19 20 32 45 31 24 25 28 13 9 9 8 8 7 19 36 28 21 16
28 28 29 30 30 31 32 37 37 39 41 46 42 42 43 43 45 53 55 58 54 50 43 38 36 37 43 60 30 24 26 28 30 28 29 24 31 7 2 6 3 7 12 17 11 13 13
32 31 32 30 30 31 34 40 38 35 36 38 45 46 45 44 48 49 51 56 50 49 41 37 36 29 33 33 43 35 41 37 38 28 25 22 20 15 12 7 8 7 1 7 3 8 5
32 30 32 30 31 33 34 39 45 40 42 42 44 43 46 44 50 53 57 55 49 42 42 33 27 22 35 29 23 8 16 49 41 29 26 18 11 15 10 10 7 5 9 8 16 7 8
33 32 30 34 37 40 38 37 43 43 46 49 45 42 44 47 50 51 55 52 35 24 22 17 15 16 39 31 18 22 24 20 44 24 25 18 16 8 5 7 12 12 8 6 9 10 7
36 37 34 38 39 39 36 36 42 41 42 42 41 40 40 42 44 47 49 52 13 3 7 22 17 29 22 20 27 12 16 13 27 25 13 13 8 19 23 16 6 6 4 8 15 18 8
38 39 32 36 38 41 36 39 40 39 39 39 38 37 38 42 40 41 35 18 18 20 29 44 56 75 80 63 38 43 5 20 18 12 12 3 31 13 15 11 10 8 9 16 21 24 16
41 40 34 41 44 43 38 41 41 40 39 37 33 33 34 37 39 37 21 6 17 34 15 25 55 63 76 46 52 73 36 14 9 13 19 15 9 27 22 11 11 14 12 16 16 12 2
43 42 38 44 47 45 42 40 42 40 37 36 34 31 32 33 33 18 14 6 19 25 8 14 14 23 32 34 18 74 48 27 11 29 14 13 32 10 10 21 16 12 18 24 15 2 10
43 47 43 46 48 46 42 40 40 40 38 36 35 32 27 31 27 30 17 24 27 1 10 6 9 7 16 36 6 30 70 42 19 15 16 19 12 18 21 33 15 19 8 18 21 13 6
47 50 48 47 52 47 42 40 40 40 37 37 34 32 28 36 42 31 36 26 10 3 16 11 8 10 15 25 9 10 35 30 33 5 5 19 7 13 17 14 21 17 8 10 1 6 7
52 50 50 52 47 45 43 40 41 40 45 38 34 33 33 41 38 23 22 16 6 13 12 10 8 2 7 11 9 5 18 23 16 13 17 8 20 5 2 5 4 9 6 6 6 2 13
54 54 51 49 48 46 44 42 38 38 42 40 34 34 38 49 32 25 17 4 21 7 15 11 11 20 4 9 10 3 12 16 9 7 7 19 11 21 11 29 13 13 17 10 11 6 10
57 54 51 52 50 48 46 44 41 40 38 39 35 40 47 51 34 23 6 18 8 8 9 12 18 5 9 9 3 5 9 13 18 15 12 11 11 9 11 18 22 9 11 15 5 5 3
56 57 53 56 52 50 47 43 45 44 37 37 39 44 54 47 36 30 7 29 19 6 14 9 10 10 13 15 10 7 3 3 5 14 19 9 6 10 10 11 12 15 7 4 3 8 11
61 63 59 57 54 51 45 42 43 42 42 37 39 21 26 51 41 31 18 17 20 53 33 11 2 8 6 10 12 13 4 5 9 10 7 11 10 9 10 8 13 4 7 5 7 9 16
67 66 63 61 57 51 48 47 49 46 39 45 36 9 33 56 20 13 26 24 30 11 14 21 7 9 9 5 10 5 7 6 9 7 6 2 3 11 34 27 10 3 11 12 15 13 8
65 67 64 63 58 56 56 53 54 49 46 45 15 14 47 72 21 28 16 23 20 6 4 3 8 1 6 6 8 9 9 3 8 8 7 7 7 7 14 12 4 12 14 16 5 3 31
73 69 66 67 61 61 60 61 58 53 52 55 11 9 21 58 23 32 22 29 25 36 30 10 5 9 5 6 6 8 8 9 20 7 18 14 4 5 3 9 16 13 29 16 23 14 7
75 72 71 66 64 66 68 67 63 58 55 53 24 13 16 15 29 15 35 20 40 30 25 18 18 27 13 8 7 9 13 11 9 5 6 5 6 4 9 12 20 30 33 35 32 24 26
77 72 71 69 70 74 73 70 68 64 58 67 24 13 15 5 29 38 32 41 33 35 21 31 14 4 17 26 28 12 7 3 10 4 6 6 11 3 7 12 5 25 41 37 38 27 16
74 74 74 76 79 79 76 74 72 69 67 57 60 44 21 17 20 34 43 36 32 27 42 43 28 28 20 37 35 50 48 44 21 9 8 10 8 5 9 5 12 15 10 26 33 34 17
82 82 84 86 82 79 76 73 72 69 78 86 52 42 28 17 30 26 32 44 43 38 35 40 62 17 34 33 41 30 22 28 23 16 14 13 11 7 7 2 6 18 5 28 35 39 30
96 94 88 82 78 73 69 67 65 67 75 90 69 56 39 25 16 34 30 25 47 55 39 46 41 40 28 26 8 8 7 3 13 16 16 9 9 4 4 5 13 19 11 4 15 47 46
89 83 79 74 71 67 64 63 62 63 67 79 78 69 37 15 29 19 16 41 17 28 22 39 45 44 33 5 2 6 7 8 5 9 9 10 6 7 5 5 13 37 10 31 24 39 9
70 66 64 63 62 62 64 66 68 69 68 74 64 71 44 15 15 39 21 20 18 26 8 22 41 23 33 6 7 8 9 7 9 17 10 6 2 14 9 9 17 15 2 15 1 13 44
51 58 64 66 69 68 69 68 70 71 71 77 75 48 71 19 18 16 39 26 45 55 14 21 13 16 6 12 9 8 8 10 10 12 15 15 16 9 9 7 16 14 8 14 9 71 54
55 56 55 57 60 65 71 76 72 75 78 75 58 80 59 27 13 47 57 42 33 59 63 46 23 18 26 8 8 5 5 2 10 8 8 8 12 11 17 14 14 14 9 24 12 24 64
Wind_Direction_500mb
302 301 305 305 306 308 311 312 314 308 306 301 297 305 300 303 306 308 306 301 301 298 302 309 313 313 315 279 252 247 240 262 256 239 241 220 201 187 203 180 182 218 268 305 304 301 222
308 308 309 307 303 303 303 302 306 307 315 306 304 300 304 309 301 300 304 298 303 295 298 305 305 308 307 277 275 265 238 244 230 231 231 218 221 174 269 219 164 245 298 295 305 209 182
300 302 306 305 309 308 303 299 303 301 303 304 302 309 311 314 313 305 302 299 297 292 297 295 294 299 286 267 272 249 239 213 212 227 236 227 221 255 282 278 250 277 303 313 264 186 209
301 298 299 306 309 306 312 312 309 313 310 308 314 303 302 313 318 316 309 302 296 291 286 284 283 288 264 290 277 259 239 220 214 216 232 222 201 259 231 252 359 358 44 292 279 139 209
301 304 309 307 303 299 300 299 299 306 305 306 309 311 310 310 314 314 312 305 307 288 269 266 268 267 269 272 269 314 259 236 215 232 232 228 217 227 178 108 7 5 242 256 315 262 181
297 291 291 290 288 289 291 301 303 300 299 300 297 303 311 314 314 313 311 313 317 287 257 232 236 279 255 266 285 305 298 267 218 220 227 212 202 155 55 108 214 205 213 252 258 295 83
293 291 288 290 296 295 295 297 299 304 301 301 294 295 301 309 313 315 321 340 343 257 277 215 226 224 262 290 287 247 345 221 185 203 169 193 166 201 190 202 153 151 221 243 256 257 239
288 293 290 289 289 288 291 292 295 297 296 295 299 293 294 300 306 315 314 350 14 333 298 274 256 255 254 266 294 267 254 179 177 182 152 200 232 190 190 186 222 233 248 261 287 259 173
287 290 291 288 286 284 282 287 290 291 287 291 291 298 294 292 299 305 304 8 2 340 268 278 249 246 247 234 233 257 247 219 170 157 195 194 275 173 176 196 215 242 210 257 227 335 147
282 285 285 284 283 283 283 286 289 290 288 284 282 281 289 297 296 305 307 221 328 329 288 271 219 249 213 202 241 233 228 202 215 197 155 216 239 144 174 229 163 255 204 242 262 253 235
281 281 279 280 282 282 281 282 284 286 286 282 282 274 276 276 272 287 291 292 319 128 314 229 185 298 184 169 238 210 214 194 196 192 159 218 175 197 211 224 154 231 193 226 251 226 193
277 278 282 278 278 280 282 277 279 281 284 277 276 271 265 261 263 283 299 294 321 251 249 297 205 162 148 212 268 83 176 193 206 210 238 215 193 162 204 219 189 240 297 296 35 165 210
277 278 277 280 279 279 279 276 277 276 281 273 268 263 253 259 262 279 303 312 209 225 322 305 334 180 188 180 226 181 167 176 169 171 210 250 243 235 163 302 194 154 129 300 299 225 231
273 276 277 279 279 276 276 272 275 273 275 265 260 255 243 250 256 265 296 251 226 224 270 324 318 337 225 141 255 171 119 172 242 112 151 202 286 195 202 209 190 181 168 173 228 215 253
274 273 273 276 275 272 269 270 269 269 267 253 255 250 239 237 234 230 187 221 222 203 277 356 327 294 350 357 14 132 170 181 204 189 172 173 241 264 202 198 178 234 187 202 196 355 37
271 271 271 272 273 270 270 267 271 267 257 247 252 254 244 232 222 206 197 230 223 275 351 30 351 26 16 340 29 32 44 357 222 204 186 225 256 224 256 157 238 210 179 90 14 197 259
268 269 271 274 272 269 265 265 269 266 251 247 252 246 232 216 210 192 221 225 239 264 290 337 23 333 353 352 4 337 348 35 20 338 219 193 232 259 342 179 190 130 231 204 185 160 241
268 270 270 272 270 264 263 263 262 258 250 245 246 234 181 194 188 198 223 213 218 276 225 230 275 235 247 291 296 246 298 5 19 323 64 264 270 212 251 252 296 185 226 203 220 240 234
268 269 269 269 267 261 263 263 260 255 239 235 229 216 191 189 207 213 202 207 243 300 238 268 240 150 201 274 258 234 256 355 42 69 48 338 8 4 327 290 36 236 224 228 185 136 232
269 269 268 266 263 260 263 262 259 250 238 226 232 202 187 200 215 206 202 217 209 223 252 272 299 0 319 264 260 306 327 334 2 70 25 31 93 132 262 321 312 307 319 248 214 223 202
269 269 268 265 261 261 262 262 256 245 232 220 223 222 197 209 208 204 197 215 215 226 206 218 248 244 248 321 329 245 247 356 4 182 93 74 286 160 204 260 340 322 298 276 263 240 222
272 270 268 265 262 264 262 258 252 240 227 213 210 190 206 193 184 201 209 216 214 219 215 217 234 252 232 233 225 268 2 117 251 281 184 187 229 284 271 244 3 312 295 285 274 271 275
273 270 267 265 265 264 261 255 247 233 219 219 218 223 218 188 183 197 211 215 209 206 219 229 213 239 260 248 241 241 248 251 237 247 179 164 141 133 251 358 341 300 333 317 281 262 232
270 268 267 267 265 261 255 249 241 230 219 215 214 206 211 225 212 208 185 204 210 210 214 209 226 232 250 280 288 272 232 225 233 232 178 149 154 183 260 0 229 263 300 305 287 273 249
269 269 267 264 260 253 248 239 232 225 219 216 214 204 211 230 234 212 216 202 201 209 213 217 221 221 240 322 324 308 335 266 221 202 198 178 138 179 220 204 285 287 208 79 30 309 299
267 265 261 256 251 246 238 234 229 224 219 216 216 213 209 221 221 205 203 201 188 205 205 223 230 239 250 151 23 240 221 228 161 160 134 104 55 140 165 199 247 280 193 54 17 286 248
259 255 252 249 246 243 240 238 233 227 222 217 213 201 201 210 208 197 200 192 193 178 185 193 224 230 224 149 211 210 246 240 203 173 169 123 122 221 215 242 278 273 242 78 145 302 316
259 255 255 253 251 245 237 231 227 225 221 215 221 221 215 223 194 191 209 210 196 192 175 161 171 208 172 190 193 204 207 225 194 173 166 170 176 199 202 222 274 229 97 142 183 293 290
274 269 257 250 247 242 234 231 231 221 218 213 212 218 211 206 228 231 236 226 221 213 200 182 189 165 188 165 188 143 243 14 176 219 195 211 184 186 195 209 220 232 265 218 206 266 284
Wind_Speed_850mb
24 27 27 27 27 30 35 39 34 29 39 43 46 53 52 52 53 57 56 48 47 45 44 37 40 43 40 16 40 26 24 25 17 18 21 25 24 13 7 8 4 10 8 28 41 20 15
26 28 28 28 28 32 33 37 39 42 35 36 40 46 45 45 52 57 59 55 54 46 46 37 38 41 32 16 19 20 32 45 31 24 25 28 13 9 9 8 8 7 19 36 28 21 16
28 28 29 30 30 31 32 37 37 39 41 46 42 42 43 43 45 53 55 58 54 50 43 38 36 37 43 60 30 24 26 28 30 28 29 24 31 7 2 6 3 7 12 17 11 13 13
32 31 32 30 30 31 34 40 38 35 36 38 45 46 45 44 48 49 51 56 50 49 41 37 36 29 33 33 43 35 41 37 38 28 25 22 20 15 12 7 8 7 1 7 3 8 5
32 30 32 30 31 33 34 39 45 40 42 42 44 43 46 44 50 53 57 55 49 42 42 33 27 22 35 29 23 8 16 49 41 29 26 18 11 15 10 10 7 5 9 8 16 7 8
33 32 30 34 37 40 38 37 43 43 46 49 45 42 44 47 50 51 55 52 35 24 22 17 15 16 39 31 18 22 24 20 44 24 25 18 16 8 5 7 12 12 8 6 9 10 7
36 37 34 38 39 39 36 36 42 41 42 42 41 40 40 42 44 47 49 52 13 3 7 22 17 29 22 20 27 12 16 13 27 25 13 13 8 19 23 16 6 6 4 8 15 18 8
38 39 32 36 38 41 36 39 40 39 39 39 38 37 38 42 40 41 35 18 18 20 29 44 56 75 80 63 38 43 5 20 18 12 12 3 31 13 15 11 10 8 9 16 21 24 16
41 40 34 41 44 43 38 41 41 40 39 37 33 33 34 37 39 37 21 6 17 34 15 25 55 63 76 46 52 73 36 14 9 13 19 15 9 27 22 11 11 14 12 16 16 12 2
43 42 38 44 47 45 42 40 42 40 37 36 34 31 32 33 33 18 14 6 19 25 8 14 14 23 32 34 18 74 48 27 11 29 14 13 32 10 10 21 16 12 18 24 15 2 10
43 47 43 46 48 46 42 40 40 40 38 36 35 32 27 31 27 30 17 24 27 1 10 6 9 7 16 36 6 30 70 42 19 15 16 19 12 18 21 33 15 19 8 18 21 13 6
47 50 48 47 52 47 42 40 40 40 37 37 34 32 28 36 42 31 36 26 10 3 16 11 8 10 15 25 9 10 35 30 33 5 5 19 7 13 17 14 21 17 8 10 1 6 7
52 50 50 52 47 45 43 40 41 40 45 38 34 33 33 41 38 23 22 16 6 13 12 10 8 2 7 11 9 5 18 23 16 13 17 8 20 5 2 5 4 9 6 6 6 2 13
54 54 51 49 48 46 44 42 38 38 42 40 34 34 38 49 32 25 17 4 21 7 15 11 11 20 4 9 10 3 12 16 9 7 7 19 11 21 11 29 13 13 17 10 11 6 10
57 54 51 52 50 48 46 44 41 40 38 39 35 40 47 51 34 23 6 18 8 8 9 12 18 5 9 9 3 5 9 13 18 15 12 11 11 9 11 18 22 9 11 15 5 5 3
56 57 53 56 52 50 47 43 45 44 37 37 39 44 54 47 36 30 7 29 19 6 14 9 10 10 13 15 10 7 3 3 5 14 19 9 6 10 10 11 12 15 7 4 3 8 11
61 63 59 57 54 51 45 42 43 42 42 37 39 21 26 51 41 31 18 17 20 53 33 11 2 8 6 10 12 13 4 5 9 10 7 11 10 9 10 8 13 4 7 5 7 9 16
67 66 63 61 57 51 48 47 49 46 39 45 36 9 33 56 20 13 26 24 30 11 14 21 7 9 9 5 10 5 7 6 9 7 6 2 3 11 34 27 10 3 11 12 15 13 8
65 67 64 63 58 56 56 53 54 49 46 45 15 14 47 72 21 28 16 23 20 6 4 3 8 1 6 6 8 9 9 3 8 8 7 7 7 7 14 12 4 12 14 16 5 3 31
73 69 66 67 61 61 60 61 58 53 52 55 11 9 21 58 23 32 22 29 25 36 30 10 5 9 5 6 6 8 8 9 20 7 18 14 4 5 3 9 16 13 29 16 23 14 7
75 72 71 66 64 66 68 67 63 58 55 53 24 13 16 15 29 15 35 20 40 30 25 18 18 27 13 8 7 9 13 11 9 5 6 5 6 4 9 12 20 30 33 35 32 24 26
77 72 71 69 70 74 73 70 68 64 58 67 24 13 15 5 29 38 32 41 33 35 21 31 14 4 17 26 28 12 7 3 10 4 6 6 11 3 7 12 5 25 41 37 38 27 16
74 74 74 76 79 79 76 74 72 69 67 57 60 44 21 17 20 34 43 36 32 27 42 43 28 28 20 37 35 50 48 44 21 9 8 10 8 5 9 5 12 15 10 26 33 34 17
82 82 84 86 82 79 76 73 72 69 78 86 52 42 28 17 30 26 32 44 43 38 35 40 62 17 34 33 41 30 22 28 23 16 14 13 11 7 7 2 6 18 5 28 35 39 30
96 94 88 82 78 73 69 67 65 67 75 90 69 56 39 25 16 34 30 25 47 55 39 46 41 40 28 26 8 8 7 3 13 16 16 9 9 4 4 5 13 19 11 4 15 47 46
89 83 79 74 71 67 64 63 62 63 67 79 78 69 37 15 29 19 16 41 17 28 22 39 45 44 33 5 2 6 7 8 5 9 9 10 6 7 5 5 13 37 10 31 24 39 9
70 66 64 63 62 62 64 66 68 69 68 74 64 71 44 15 15 39 21 20 18 26 8 22 41 23 33 6 7 8 9 7 9 17 10 6 2 14 9 9 17 15 2 15 1 13 44
51 58 64 66 69 68 69 68 70 71 71 77 75 48 71 19 18 16 39 26 45 55 14 21 13 16 6 12 9 8 8 10 10 12 15 15 16 9 9 7 16 14 8 14 9 71 54
55 56 55 57 60 65 71 76 72 75 78 75 58 80 59 27 13 47 57 42 33 59 63 46 23 18 26 8 8 5 5 2 10 8 8 8 12 11 17 14 14 14 9 24 12 24 64
Wind_Direction_850mb
302 301 305 305 306 308 311 312 314 308 306 301 297 305 300 303 306 308 306 301 301 298 302 309 313 313 315 279 252 247 240 262 256 239 241 220 201 187 203 180 182 218 268 305 304 301 222
308 308 309 307 303 303 303 302 306 307 315 306 304 300 304 309 301 300 304 298 303 295 298 305 305 308 307 277 275 265 238 244 230 231 231 218 221 174 269 219 164 245 298 295 305 209 182
300 302 306 305 309 308 303 299 303 301 303 304 302 309 311 314 313 305 302 299 297 292 297 295 294 299 286 267 272 249 239 213 212 227 236 227 221 255 282 278 250 277 303 313 264 186 209
301 298 299 306 309 306 312 312 309 313 310 308 314 303 302 313 318 316 309 302 296 291 286 284 283 288 264 290 277 259 239 220 214 216 232 222 201 259 231 252 359 358 44 292 279 139 209
301 304 309 307 303 299 300 299 299 306 305 306 309 311 310 310 314 314 312 305 307 288 269 266 268 267 269 272 269 314 259 236 215 232 232 228 217 227 178 108 7 5 242 256 315 262 181
297 291 291 290 288 289 291 301 303 300 299 300 297 303 311 314 314 313 311 313 317 287 257 232 236 279 255 266 285 305 298 267 218 220 227 212 202 155 55 108 214 205 213 252 258 295 83
293 291 288 290 296 295 295 297 299 304 301 301 294 295 301 309 313 315 321 340 343 257 277 215 226 224 262 290 287 247 345 221 185 203 169 193 166 201 190 202 153 151 221 243 256 257 239
288 293 290 289 289 288 291 292 295 297 296 295 299 293 294 300 306 315 314 350 14 333 298 274 256 255 254 266 294 267 254 179 177 182 152 200 232 190 190 186 222 233 248 261 287 259 173
287 290 291 288 286 284 282 287 290 291 287 291 291 298 294 292 299 305 304 8 2 340 268 278 249 246 247 234 233 257 247 219 170 157 195 194 275 173 176 196 215 242 210 257 227 335 147
282 285 285 284 283 283 283 286 289 290 288 284 282 281 289 297 296 305 307 221 328 329 288 271 219 249 213 202 241 233 228 202 215 197 155 216 239 144 174 229 163 255 204 242 262 253 235
281 281 279 280 282 282 281 282 284 286 286 282 282 274 276 276 272 287 291 292 319 128 314 229 185 298 184 169 238 210 214 194 196 192 159 218 175 197 211 224 154 231 193 226 251 226 193
277 278 282 278 278 280 282 277 279 281 284 277 276 271 265 261 263 283 299 294 321 251 249 297 205 162 148 212 268 83 176 193 206 210 238 215 193 162 204 219 189 240 297 296 35 165 210
277 278 277 280 279 279 279 276 277 276 281 273 268 263 253 259 262 279 303 312 209 225 322 305 334 180 188 180 226 181 167 176 169 171 210 250 243 235 163 302 194 154 129 300 299 225 231
273 276 277 279 279 276 276 272 275 273 275 265 260 255 243 250 256 265 296 251 226 224 270 324 318 337 225 141 255 171 119 172 242 112 151 202 286 195 202 209 190 181 168 173 228 215 253
274 273 273 276 275 272 269 270 269 269 267 253 255 250 239 237 234 230 187 221 222 203 277 356 327 294 350 357 14 132 170 181 204 189 172 173 241 264 202 198 178 234 187 202 196 355 37
271 271 271 272 273 270 270 267 271 267 257 247 252 254 244 232 222 206 197 230 223 275 351 30 351 26 16 340 29 32 44 357 222 204 186 225 256 224 256 157 238 210 179 90 14 197 259
268 269 271 274 272 269 265 265 269 266 251 247 252 246 232 216 210 192 221 225 239 264 290 337 23 333 353 352 4 337 348 35 20 338 219 193 232 259 342 179 190 130 231 204 185 160 241
268 270 270 272 270 264 263 263 262 258 250 245 246 234 181 194 188 198 223 213 218 276 225 230 275 235 247 291 296 246 298 5 19 323 64 264 270 212 251 252 296 185 226 203 220 240 234
268 269 269 269 267 261 263 263 260 255 239 235 229 216 191 189 207 213 202 207 243 300 238 268 240 150 201 274 258 234 256 355 42 69 48 338 8 4 327 290 36 236 224 228 185 136 232
269 269 268 266 263 260 263 262 259 250 238 226 232 202 187 200 215 206 202 217 209 223 252 272 299 0 319 264 260 306 327 334 2 70 25 31 93 132 262 321 312 307 319 248 214 223 202
269 269 268 265 261 261 262 262 256 245 232 220 223 222 197 209 208 204 197 215 215 226 206 218 248 244 248 321 329 245 247 356 4 182 93 74 286 160 204 260 340 322 298 276 263 240 222
272 270 268 265 262 264 262 258 252 240 227 213 210 190 206 193 184 201 209 216 214 219 215 217 234 252 232 233 225 268 2 117 251 281 184 187 229 284 271 244 3 312 295 285 274 271 275
273 270 267 265 265 264 261 255 247 233 219 219 218 223 218 188 183 197 211 215 209 206 219 229 213 239 260 248 241 241 248 251 237 247 179 164 141 133 251 358 341 300 333 317 281 262 232
270 268 267 267 265 261 255 249 241 230 219 215 214 206 211 225 212 208 185 204 210 210 214 209 226 232 250 280 288 272 232 225 233 232 178 149 154 183 260 0 229 263 300 305 287 273 249
269 269 267 264 260 253 248 239 232 225 219 216 214 204 211 230 234 212 216 202 201 209 213 217 221 221 240 322 324 308 335 266 221 202 198 178 138 179 220 204 285 287 208 79 30 309 299
267 265 261 256 251 246 238 234 229 224 219 216 216 213 209 221 221 205 203 201 188 205 205 223 230 239 250 151 23 240 221 228 161 160 134 104 55 140 165 199 247 280 193 54 17 286 248
259 255 252 249 246 243 240 238 233 227 222 217 213 201 201 210 208 197 200 192 193 178 185 193 224 230 224 149 211 210 246 240 203 173 169 123 122 221 215 242 278 273 242 78 145 302 316
259 255 255 253 251 245 237 231 227 225 221 215 221 221 215 223 194 191 209 210 196 192 175 161 171 208 172 190 193 204 207 225 194 173 166 170 176 199 202 222 274 229 97 142 183 293 290
274 269 257 250 247 242 234 231 231 221 218 213 212 218 211 206 228 231 236 226 221 213 200 182 189 165 188 165 188 143 243 14 176 219 195 211 184 186 195 209 220 232 265 218 206 266 284